Location: Mentone
(34.5413°N, 85.5351°W)
Time: 22:33:26
(UTC-05:00)

Amateur Radio Satellites - All Passes

Search period start: 29 August 2015 22:03
Search period end: 30 August 2015 22:03
Location: Mentone, 34.5413°N, 85.5351°W

Satellite Date Start Highest point End Downlink Frequencies (MHz)
Time Altitude Azimuth
ESTCUBE 1 29 Aug 22:14:21 22:16:52 15° 68° (ENE) 22:19:34 437.505/2401.250
DX 1 29 Aug 22:22:06 22:26:10 42° 73° (ENE) 22:30:16 434.975-435.025
DELFI C3 29 Aug 22:25:23 22:29:02 31° 263° (W) 22:32:38 145.870
AISAT 29 Aug 22:34:42 22:38:42 36° 73° (ENE) 22:42:47 437.250
Oscar 11 29 Aug 22:35:23 22:38:22 17° 267° (W) 22:41:11 145.826/435.025
UKube-1 29 Aug 22:38:16 22:42:30 59° 75° (ENE) 22:46:45 .
HUMSAT D 29 Aug 22:40:05 22:44:21 65° 260° (W) 22:48:39 437.325/437.525
CUBEBUG 1 29 Aug 22:43:09 22:46:38 25° 71° (ENE) 22:50:13 437.445
UNISAT 6 29 Aug 22:44:46 22:48:59 36° 97° (E) 22:53:07 437.425
Cosmos 2504 29 Aug 22:46:22 22:53:11 34° 86° (E) 23:00:33 435.465 / 435.565
POLYITAN 1 29 Aug 22:47:04 22:48:38 12° 91° (E) 22:50:28 437.675
POPSAT HIP 1 29 Aug 22:50:20 22:52:14 13° 91° (E) 22:54:20 437.405
DUCHIFAT 1 29 Aug 22:52:52 22:54:50 13° 91° (E) 22:57:02 145.980
VELOX 1 29 Aug 23:03:12 23:07:35 78° 76° (ENE) 23:12:00 145.980
QB50P2 29 Aug 23:05:34 23:08:48 21° 94° (E) 23:12:07 145.880/145.840
NANOSAT C BR1 29 Aug 23:08:25 23:11:41 22° 94° (E) 23:15:02 145.865
AUBIESAT-1 29 Aug 23:09:56 23:13:39 42° 102° (ESE) 23:17:06 437.475
BUGSAT 1 29 Aug 23:10:50 23:12:45 13° 91° (E) 23:14:55 437.445
M-CUBED/EXP-1 PRIME 29 Aug 23:12:51 23:16:46 58° 104° (ESE) 23:20:21 437.505
RS-15 29 Aug 23:13:33 23:21:02 19° 28° (NNE) 23:29:11 29.354- 29.394
TIGRISAT 29 Aug 23:14:03 23:18:39 79° 102° (ESE) 23:23:05 435.000
ZACube-1 29 Aug 23:15:17 23:16:29 11° 271° (W) 23:17:22 437.345
50 SAT 29 Aug 23:20:16 23:24:06 48° 261° (W) 23:27:57 437.505
QB50P1 29 Aug 23:20:40 23:24:28 31° 97° (E) 23:28:18 145.935-145.965
ANTELSAT 29 Aug 23:30:11 23:34:44 64° 284° (WNW) 23:39:08 437.575/2403.000
ESTCUBE 1 29 Aug 23:49:10 23:53:26 42° 262° (W) 23:57:40 437.505/2401.250
DX 1 30 Aug 00:00:23 00:02:39 13° 268° (W) 00:04:42 434.975-435.025
TISAT 1 30 Aug 00:00:39 00:04:20 31° 72° (ENE) 00:08:05 437.305
AISAT 30 Aug 00:12:37 00:15:27 16° 268° (W) 00:18:04 437.250
CUBEBUG 1 30 Aug 00:19:31 00:22:57 22° 265° (W) 00:26:19 437.445
POLYITAN 1 30 Aug 00:20:42 00:24:50 46° 286° (WNW) 00:28:56 437.675
BEESAT 3 30 Aug 00:21:13 00:24:58 37° 56° (NE) 00:28:41 437.485
UNISAT 6 30 Aug 00:22:22 00:25:29 18° 291° (WNW) 00:28:23 437.425
SPROUT 30 Aug 00:22:45 00:27:02 75° 259° (WSW) 00:31:20 437.525
SO-50 30 Aug 00:23:44 00:26:46 18° 110° (ESE) 00:30:02 436.795
POPSAT HIP 1 30 Aug 00:24:16 00:28:21 43° 286° (WNW) 00:32:24 437.405
DUCHIFAT 1 30 Aug 00:26:49 00:30:52 41° 286° (WNW) 00:34:53 145.980
CUSAT 1 30 Aug 00:27:12 00:30:36 90° 180° (S) 00:35:08 437.405
BEESAT 2 30 Aug 00:29:54 00:33:38 35° 56° (NE) 00:37:19 435.950
Cosmos 2504 30 Aug 00:37:37 00:45:11 44° 284° (WNW) 00:53:08 435.465 / 435.565
DANDE 30 Aug 00:39:14 00:42:14 65° 96° (E) 00:46:08 436.750
QB50P2 30 Aug 00:41:01 00:44:40 27° 288° (WNW) 00:48:14 145.880/145.840
NANOSAT C BR1 30 Aug 00:43:53 00:47:29 26° 288° (WNW) 00:51:00 145.865
BUGSAT 1 30 Aug 00:44:25 00:48:27 42° 286° (WNW) 00:52:28 437.445
AUBIESAT-1 30 Aug 00:46:29 00:47:57 12° 298° (WNW) 00:49:10 437.475
ITUPSAT 1 30 Aug 00:49:16 00:52:28 19° 68° (ENE) 00:55:50 437.325
AIST 2 30 Aug 00:52:02 00:53:57 13° 47° (NE) 00:56:02 435.215
QB50P1 30 Aug 00:57:04 01:00:07 19° 290° (WNW) 01:03:02 145.935-145.965
Oscar 19 30 Aug 01:08:15 01:11:43 18° 92° (E) 01:15:22 437.125/150
BEESAT 30 Aug 01:22:30 01:26:59 43° 73° (ENE) 01:31:31 436.000
RS-15 30 Aug 01:25:04 01:36:47 61° 55° (NE) 01:48:55 29.354- 29.394
PCSat 30 Aug 01:35:59 01:40:55 38° 110° (ESE) 01:45:56 145.827
TISAT 1 30 Aug 01:37:19 01:40:10 17° 267° (W) 01:42:54 437.305
SWISSCUBE 30 Aug 01:47:48 01:52:35 90° 255° (WSW) 01:57:22 437.505
BEESAT 3 30 Aug 02:00:21 02:02:35 14° 250° (WSW) 02:04:38 437.485
SO-50 30 Aug 02:02:24 02:06:58 45° 304° (NW) 02:11:40 436.795
ITAMSAT 1 30 Aug 02:02:53 02:05:31 14° 91° (E) 02:08:27 435.822/435.867
BEESAT 2 30 Aug 02:08:53 02:11:23 16° 250° (WSW) 02:13:43 435.950
ITUPSAT 1 30 Aug 02:25:37 02:30:06 39° 262° (W) 02:34:33 437.325
AIST 2 30 Aug 02:28:50 02:32:54 54° 244° (WSW) 02:36:53 435.215
GONETS M04 30 Aug 02:44:51 02:53:15 58° 92° (E) 03:01:44
Oscar 19 30 Aug 02:46:22 02:51:19 44° 288° (WNW) 02:56:11 437.125/150
VERMONT LUNAR 30 Aug 02:49:47 02:51:21 13° 144° (SE) 02:52:58 437.305
STARS 30 Aug 02:55:28 02:59:30 37° 73° (ENE) 03:03:37 437.465
JAS-2 30 Aug 03:00:18 03:06:30 35° 94° (E) 03:12:06 435.910
BEESAT 30 Aug 03:02:03 03:05:04 16° 268° (W) 03:07:53 436.000
KKS-1 30 Aug 03:08:16 03:12:43 85° 257° (WSW) 03:17:12 437.445
MOZHAYETS 4 30 Aug 03:08:29 03:09:54 12° 67° (ENE) 03:11:35
Gurwin Techsat 1B 30 Aug 03:09:52 03:15:12 89° 301° (WNW) 03:20:32 435.225
Cosmos 2499 30 Aug 03:11:08 03:16:26 20° 82° (E) 03:22:25 435.465 / 435.565
PCSat 30 Aug 03:19:58 03:24:27 25° 306° (NW) 03:28:53 145.827
RS-15 30 Aug 03:38:18 03:48:53 36° 253° (WSW) 03:59:19 29.354- 29.394
ITAMSAT 1 30 Aug 03:40:22 03:45:26 55° 287° (WNW) 03:50:28 435.822/435.867
HORYU 2 30 Aug 04:14:22 04:18:32 38° 98° (E) 04:22:41 437.375
AO-7 30 Aug 04:21:46 04:29:51 56° 102° (ESE) 04:37:57 29.400- 29.500
VERMONT LUNAR 30 Aug 04:24:31 04:27:31 85° 343° (NNW) 04:30:30 437.305
STARS 30 Aug 04:33:22 04:36:08 16° 268° (W) 04:38:42 437.465
MOZHAYETS 4 30 Aug 04:42:06 04:46:40 60° 259° (W) 04:51:14
GONETS M04 30 Aug 04:43:34 04:50:41 26° 290° (WNW) 04:57:30
JAS-2 30 Aug 04:45:17 04:51:31 34° 293° (WNW) 04:57:01 435.910
CUBESAT XI-V 30 Aug 04:55:43 04:57:52 14° 68° (ENE) 05:00:16 437.345
Cosmos 2499 30 Aug 05:00:27 05:08:44 74° 279° (W) 05:17:33 435.465 / 435.565
STRAND 1 30 Aug 05:35:38 05:36:28 11° 64° (ENE) 05:37:39 437.568
O/OREOS (USA 219) 30 Aug 05:36:54 05:41:32 89° 58° (ENE) 05:46:07 437.305
CUTE-I 30 Aug 05:50:52 05:53:41 15° 91° (E) 05:56:47 437.470
HORYU 2 30 Aug 05:52:00 05:54:52 16° 292° (WNW) 05:57:33 437.375
VERMONT LUNAR 30 Aug 06:01:34 06:04:11 27° 352° (N) 06:06:48 437.305
PHONESAT 2.4 30 Aug 06:05:23 06:08:42 52° 151° (SSE) 06:12:02 2401.200-2431.200
PRISM 30 Aug 06:13:59 06:16:16 15° 69° (ENE) 06:18:43 437.425
AO-7 30 Aug 06:15:20 06:22:17 30° 298° (WNW) 06:29:01 29.400- 29.500
CUBESAT XI-V 30 Aug 06:30:28 06:34:56 49° 261° (W) 06:39:24 437.345
Cubesat XI-IV 30 Aug 06:43:22 06:48:33 52° 100° (E) 06:53:45 437.490
Cosmos 2499 30 Aug 07:00:20 07:03:50 12° 300° (WNW) 07:06:38 435.465 / 435.565
STRAND 1 30 Aug 07:09:59 07:15:06 80° 259° (WSW) 07:20:13 437.568
BRITE-PL 30 Aug 07:15:56 07:19:59 21° 92° (E) 07:24:19 437.365/2234.400
CUTE-I 30 Aug 07:28:58 07:34:10 56° 287° (WNW) 07:39:21 437.470
VERMONT LUNAR 30 Aug 07:38:26 07:41:05 28° 9° (N) 07:43:44 437.305
PHONESAT 2.4 30 Aug 07:43:26 07:46:40 38° 347° (NNW) 07:49:52 2401.200-2431.200
HO-68 30 Aug 07:43:38 07:46:08 12° 88° (E) 07:49:14 435.675
PRISM 30 Aug 07:47:40 07:51:27 35° 262° (W) 07:55:12 437.425
AIST 1 30 Aug 07:52:09 07:55:59 35° 92° (E) 07:59:53
GOMX 1 30 Aug 07:54:22 07:59:03 29° 95° (E) 08:03:50 467.674
YUBILEINY 30 Aug 08:12:27 08:21:02 53° 78° (ENE) 08:29:35 435.215
ISS 30 Aug 08:14:17 08:16:43 20° 130° (SE) 08:19:13 145.825
CUTE 1.7 + AOD 2 30 Aug 08:16:08 08:18:24 15° 91° (E) 08:20:53 437.475
DOVE 4 30 Aug 08:17:24 08:21:58 29° 94° (E) 08:26:33 437.250
Cubesat XI-IV 30 Aug 08:24:49 08:28:17 17° 294° (WNW) 08:31:31 437.490
CANX-2 30 Aug 08:28:55 08:32:19 24° 95° (E) 08:35:46 2200.000
BRITE-PL 30 Aug 08:53:24 08:58:39 45° 286° (WNW) 09:04:01 437.365/2234.400
SEEDS 30 Aug 08:53:29 08:57:15 32° 97° (E) 09:01:02 437.485
Cosmos 2491 30 Aug 08:54:31 09:02:55 57° 92° (E) 09:11:24 435.465 / 435.565
VERMONT LUNAR 30 Aug 09:14:44 09:17:43 82° 202° (SSW) 09:20:42 437.305
CINEMA 3 30 Aug 09:16:25 09:21:17 49° 98° (E) 09:26:00 145.822/145.860
COMPASS 1 30 Aug 09:18:19 09:22:22 51° 99° (E) 09:26:23 437.405
CUBEBUG 2 30 Aug 09:20:05 09:23:38 22° 93° (E) 09:27:15 437.445
PHONESAT 2.4 30 Aug 09:21:59 09:25:00 29° 4° (N) 09:28:02 2401.200-2431.200
CUSAT 1 30 Aug 09:27:01 09:27:57 10° 61° (ENE) 09:29:41 437.405
HO-68 30 Aug 09:27:38 09:34:54 89° 104° (ESE) 09:42:06 435.675
ZACube-1 30 Aug 09:29:05 09:31:31 15° 91° (E) 09:34:07 437.345
AAUSAT CUBESAT 2 30 Aug 09:30:08 09:34:14 60° 100° (E) 09:38:17 437.432
UWE-3 30 Aug 09:30:59 09:34:28 22° 93° (E) 09:37:59 435.000/436.395/437.385
AIST 1 30 Aug 09:31:22 09:33:50 14° 288° (WNW) 09:36:06
GOMX 1 30 Aug 09:32:18 09:37:06 32° 289° (WNW) 09:41:52 467.674
FUNcube-1 30 Aug 09:35:01 09:37:50 17° 92° (E) 09:40:46 145.935
UNISAT 6 30 Aug 09:40:29 09:44:04 23° 70° (ENE) 09:47:49 437.425
ISS 30 Aug 09:50:06 09:53:00 29° 324° (NW) 09:55:54 145.825
CUTE 1.7 + AOD 2 30 Aug 09:50:37 09:54:30 36° 286° (WNW) 09:58:20 437.475
AUBIESAT-1 30 Aug 09:52:49 09:57:09 37° 68° (ENE) 10:01:30 437.475
DOVE 4 30 Aug 09:55:01 09:59:38 30° 289° (WNW) 10:04:08 437.250
M-CUBED/EXP-1 PRIME 30 Aug 09:56:03 10:00:38 48° 69° (ENE) 10:05:14 437.505
QB50P2 30 Aug 09:57:23 09:58:17 11° 67° (ENE) 09:59:27 145.880/145.840
NANOSAT C BR1 30 Aug 09:59:49 10:00:45 11° 67° (ENE) 10:01:57 145.865
CANX-2 30 Aug 10:04:48 10:08:10 22° 289° (WNW) 10:11:23 2200.000
DELFI C3 30 Aug 10:07:21 10:11:07 41° 98° (E) 10:14:53 145.870
TIGRISAT 30 Aug 10:08:53 10:13:16 45° 74° (ENE) 10:17:47 435.000
YUBILEINY 30 Aug 10:10:10 10:17:27 29° 274° (W) 10:24:26 435.215
QB50P1 30 Aug 10:11:06 10:13:33 16° 69° (ENE) 10:16:11 145.935-145.965
Oscar 11 30 Aug 10:24:30 10:28:49 73° 283° (WNW) 10:33:05 145.826/435.025
ANTELSAT 30 Aug 10:24:57 10:29:34 72° 76° (ENE) 10:34:18 437.575/2403.000
Cosmos 2504 30 Aug 10:28:07 10:36:20 53° 78° (ENE) 10:44:06 435.465 / 435.565
HUMSAT D 30 Aug 10:28:08 10:31:38 26° 95° (E) 10:35:09 437.325/437.525
PCSat 30 Aug 10:28:14 10:31:32 17° 49° (NE) 10:35:02 145.827
SEEDS 30 Aug 10:30:05 10:32:48 17° 290° (WNW) 10:35:22 437.485
UKube-1 30 Aug 10:31:00 10:32:53 13° 92° (E) 10:35:01 .
SO-50 30 Aug 10:37:05 10:41:59 64° 59° (ENE) 10:46:44 436.795
VERMONT LUNAR 30 Aug 10:52:48 10:53:50 11° 217° (SW) 10:54:46 437.305
Cosmos 2491 30 Aug 10:53:10 11:00:21 27° 290° (WNW) 11:07:13 435.465 / 435.565
CINEMA 3 30 Aug 10:54:56 10:58:03 16° 293° (WNW) 11:00:56 145.822/145.860
CUBEBUG 2 30 Aug 10:56:15 11:00:22 30° 288° (WNW) 11:04:17 437.445
COMPASS 1 30 Aug 10:56:27 10:57:37 11° 292° (WNW) 10:58:31 437.405
VELOX 1 30 Aug 10:58:00 11:01:09 19° 94° (E) 11:04:27 145.980
50 SAT 30 Aug 10:59:16 11:02:17 22° 95° (E) 11:05:21 437.505
PHONESAT 2.4 30 Aug 10:59:52 11:03:14 63° 19° (NNE) 11:06:37 2401.200-2431.200
ZACube-1 30 Aug 11:03:53 11:08:07 40° 286° (WNW) 11:12:12 437.345
CUSAT 1 30 Aug 11:04:15 11:11:59 62° 79° (E) 11:20:08 437.405
UWE-3 30 Aug 11:07:01 11:11:00 29° 288° (WNW) 11:14:49 435.000/436.395/437.385
POLYITAN 1 30 Aug 11:09:37 11:13:52 82° 77° (ENE) 11:18:10 437.675
FUNcube-1 30 Aug 11:10:12 11:14:19 35° 287° (WNW) 11:18:16 145.935
POPSAT HIP 1 30 Aug 11:12:57 11:17:11 87° 78° (ENE) 11:21:29 437.405
DUCHIFAT 1 30 Aug 11:15:02 11:19:15 88° 78° (ENE) 11:23:31 145.980
UNISAT 6 30 Aug 11:16:35 11:20:42 30° 264° (W) 11:24:48 437.425
HO-68 30 Aug 11:17:45 11:21:48 15° 300° (WNW) 11:25:27 435.675
DANDE 30 Aug 11:19:01 11:26:29 57° 78° (ENE) 11:34:52 436.750
AUBIESAT-1 30 Aug 11:28:20 11:31:54 20° 262° (W) 11:35:20 437.475
QB50P2 30 Aug 11:29:34 11:33:44 55° 260° (W) 11:37:57 145.880/145.840
BUGSAT 1 30 Aug 11:30:31 11:34:33 82° 77° (ENE) 11:38:40 437.445
NANOSAT C BR1 30 Aug 11:32:00 11:36:08 54° 260° (W) 11:40:19 145.865
M-CUBED/EXP-1 PRIME 30 Aug 11:32:34 11:35:37 16° 264° (W) 11:38:26 437.505
DELFI C3 30 Aug 11:44:08 11:45:51 12° 291° (WNW) 11:47:21 145.870
ESTCUBE 1 30 Aug 11:45:01 11:49:24 51° 100° (E) 11:53:47 437.505/2401.250
QB50P1 30 Aug 11:45:12 11:49:08 36° 262° (W) 11:53:04 145.935-145.965
TIGRISAT 30 Aug 11:47:33 11:50:18 15° 269° (W) 11:52:50 435.000
DX 1 30 Aug 11:49:38 11:53:58 61° 285° (WNW) 11:58:17 434.975-435.025
HUMSAT D 30 Aug 12:03:59 12:07:14 21° 289° (WNW) 12:10:21 437.325/437.525
AISAT 30 Aug 12:04:40 12:09:07 65° 285° (WNW) 12:13:33 437.250
UKube-1 30 Aug 12:05:08 12:09:17 44° 286° (WNW) 12:13:23 .
PCSat 30 Aug 12:10:07 12:15:30 65° 247° (WSW) 12:20:51 145.827
CUBEBUG 1 30 Aug 12:10:32 12:14:58 85° 102° (ESE) 12:19:24 437.445
SPROUT 30 Aug 12:13:23 12:16:55 24° 95° (E) 12:20:29 437.525
SO-50 30 Aug 12:20:01 12:22:01 12° 252° (WSW) 12:23:43 436.795
Cosmos 2504 30 Aug 12:21:10 12:28:06 28° 275° (W) 12:34:26 435.465 / 435.565
Oscar 19 30 Aug 12:21:57 12:25:30 20° 68° (ENE) 12:29:14 437.125/150
VELOX 1 30 Aug 12:33:47 12:37:46 31° 288° (WNW) 12:41:41 145.980
50 SAT 30 Aug 12:33:48 12:36:43 20° 289° (WNW) 12:39:28 437.505
PHONESAT 2.4 30 Aug 12:38:09 12:40:56 23° 214° (SW) 12:43:43 2401.200-2431.200
CUSAT 1 30 Aug 12:47:48 12:54:11 26° 271° (W) 13:00:27 437.405
JUGNU 30 Aug 12:49:58 12:52:07 12° 167° (SSE) 12:54:22 437.505
Gurwin Techsat 1B 30 Aug 12:52:02 12:53:18 11° 64° (ENE) 12:54:55 435.225
GONETS M04 30 Aug 13:00:21 13:06:53 24° 68° (ENE) 13:13:48
DANDE 30 Aug 13:02:53 13:09:25 29° 270° (W) 13:16:12 436.750
JAS-2 30 Aug 13:10:17 13:13:34 14° 59° (ENE) 13:17:24 435.910
ITAMSAT 1 30 Aug 13:17:40 13:20:45 17° 67° (ENE) 13:24:04 435.822/435.867
TISAT 1 30 Aug 13:23:25 13:27:43 86° 283° (WNW) 13:31:59 437.305
ESTCUBE 1 30 Aug 13:23:45 13:25:53 13° 293° (WNW) 13:27:46 437.505/2401.250
BEESAT 30 Aug 13:27:42 13:30:10 14° 91° (E) 13:32:52 436.000
SPROUT 30 Aug 13:49:23 13:52:53 24° 289° (WNW) 13:56:17 437.525
SWISSCUBE 30 Aug 13:52:03 13:56:11 30° 97° (E) 14:00:23 437.505
Oscar 19 30 Aug 13:59:41 14:04:34 43° 261° (W) 14:09:29 437.125/150
BEESAT 3 30 Aug 14:11:23 14:13:51 16° 111° (ESE) 14:16:28 437.485
BEESAT 2 30 Aug 14:21:11 14:23:32 15° 110° (ESE) 14:26:03 435.950
Gurwin Techsat 1B 30 Aug 14:27:22 14:32:40 81° 257° (WSW) 14:38:01 435.225
ITUPSAT 1 30 Aug 14:29:18 14:34:04 71° 102° (ESE) 14:38:49 437.325
JUGNU 30 Aug 14:36:33 14:40:27 18° 176° (S) 14:44:20 437.505
JAS-2 30 Aug 14:49:58 14:57:27 75° 75° (ENE) 15:05:21 435.910
ITAMSAT 1 30 Aug 14:54:52 14:59:53 51° 260° (W) 15:04:56 435.822/435.867
GONETS M04 30 Aug 14:55:48 15:04:30 65° 267° (W) 15:13:10
Cosmos 2499 30 Aug 14:57:03 15:04:40 35° 72° (ENE) 15:11:59 435.465 / 435.565
KKS-1 30 Aug 15:03:27 15:07:04 24° 95° (E) 15:10:46 437.445
BEESAT 30 Aug 15:03:44 15:08:18 47° 287° (WNW) 15:12:50 436.000
HORYU 2 30 Aug 15:09:32 15:13:05 24° 71° (ENE) 15:16:45 437.375
AO-7 30 Aug 15:16:38 15:24:40 56° 68° (ENE) 15:32:46 29.400- 29.500
SWISSCUBE 30 Aug 15:30:08 15:33:54 23° 290° (WNW) 15:37:34 437.505
SRMSAT 30 Aug 15:43:44 15:47:16 16° 172° (S) 15:50:51 437.500
RS-15 30 Aug 15:44:18 15:54:37 54° 111° (ESE) 16:05:23 29.354- 29.394
BEESAT 3 30 Aug 15:47:47 15:51:31 35° 304° (NW) 15:55:16 437.485
BEESAT 2 30 Aug 15:57:28 16:01:16 37° 304° (WNW) 16:05:07 435.950
ITUPSAT 1 30 Aug 16:10:20 16:11:26 11° 295° (WNW) 16:12:13 437.325
ISS 30 Aug 16:19:53 16:23:05 56° 40° (NE) 16:26:17 145.825
AIST 2 30 Aug 16:22:51 16:27:03 73° 117° (ESE) 16:31:18 435.215
STARS 30 Aug 16:24:28 16:28:54 65° 285° (WNW) 16:33:17 437.465
JUGNU 30 Aug 16:25:00 16:28:47 17° 186° (S) 16:32:31 437.505
JAS-2 30 Aug 16:37:58 16:43:17 19° 272° (W) 16:48:19 435.910
KKS-1 30 Aug 16:39:54 16:43:39 26° 289° (WNW) 16:47:18 437.445
MOZHAYETS 4 30 Aug 16:40:51 16:45:08 40° 98° (E) 16:49:25
HORYU 2 30 Aug 16:45:50 16:49:38 26° 264° (W) 16:53:22 437.375
Cosmos 2499 30 Aug 16:49:58 16:57:59 43° 271° (W) 17:05:23 435.465 / 435.565
CUTE-I 30 Aug 17:09:19 17:12:49 19° 67° (ENE) 17:16:31 437.470
AO-7 30 Aug 17:10:48 17:17:51 29° 265° (W) 17:24:39 29.400- 29.500
SRMSAT 30 Aug 17:31:44 17:35:45 19° 182° (S) 17:39:47 437.500
RS-15 30 Aug 17:57:09 18:07:22 41° 313° (NW) 18:17:49 29.354- 29.394
ISS 30 Aug 17:58:50 17:59:09 10° 233° (SW) 17:59:19 145.825
Cubesat XI-IV 30 Aug 18:01:51 18:07:05 62° 74° (ENE) 18:12:21 437.490
AIST 2 30 Aug 18:04:53 18:06:10 11° 315° (NW) 18:07:15 435.215
O/OREOS (USA 219) 30 Aug 18:08:20 18:10:55 16° 101° (E) 18:13:43 437.305
JUGNU 30 Aug 18:15:49 18:17:05 11° 195° (SSW) 18:18:13 437.505
MOZHAYETS 4 30 Aug 18:19:10 18:22:04 16° 291° (WNW) 18:24:46
BRITE-PL 30 Aug 18:25:41 18:27:22 12° 66° (ENE) 18:29:19 437.365/2234.400
CUBESAT XI-V 30 Aug 18:30:25 18:34:57 52° 99° (E) 18:39:30 437.345
CUTE-I 30 Aug 18:47:27 18:52:34 47° 261° (W) 18:57:42 437.470
GOMX 1 30 Aug 19:00:20 19:03:16 18° 68° (ENE) 19:06:28 467.674
Cosmos 2491 30 Aug 19:10:11 19:16:35 23° 68° (ENE) 19:23:24 435.465 / 435.565
CANX-2 30 Aug 19:20:12 19:21:47 12° 68° (ENE) 19:23:36 2200.000
DOVE 4 30 Aug 19:20:32 19:23:31 18° 68° (ENE) 19:26:47 437.250
SRMSAT 30 Aug 19:21:13 19:24:15 14° 191° (SSW) 19:27:12 437.500
STRAND 1 30 Aug 19:24:11 19:29:04 46° 99° (E) 19:33:59 437.568
PRISM 30 Aug 19:32:56 19:36:46 37° 99° (E) 19:40:37 437.425
AIST 1 30 Aug 19:39:41 19:44:01 86° 264° (W) 19:48:22
SEEDS 30 Aug 19:43:09 19:45:39 16° 70° (ENE) 19:48:19 437.485
Cubesat XI-IV 30 Aug 19:45:00 19:47:41 13° 270° (W) 19:50:02 437.490
O/OREOS (USA 219) 30 Aug 19:45:47 19:50:02 39° 295° (WNW) 19:54:19 437.305
HO-68 30 Aug 19:52:13 19:58:56 47° 69° (ENE) 20:05:46 435.675
BRITE-PL 30 Aug 20:01:18 20:05:26 49° 262° (W) 20:09:50 437.365/2234.400
COMPASS 1 30 Aug 20:06:29 20:09:44 23° 72° (ENE) 20:13:06 437.405
CUBESAT XI-V 30 Aug 20:09:39 20:12:00 13° 292° (WNW) 20:14:07 437.345
CINEMA 3 30 Aug 20:14:44 20:18:42 29° 71° (ENE) 20:22:54 145.822/145.860
CUBEBUG 2 30 Aug 20:16:06 20:18:11 13° 67° (ENE) 20:20:32 437.445
AAUSAT CUBESAT 2 30 Aug 20:17:41 20:21:07 25° 72° (ENE) 20:24:37 437.432
RS-15 30 Aug 20:18:57 20:24:23 14° 344° (NNW) 20:29:34 29.354- 29.394
UWE-3 30 Aug 20:25:59 20:27:56 13° 67° (ENE) 20:30:09 435.000/436.395/437.385
GOMX 1 30 Aug 20:37:04 20:41:07 35° 264° (W) 20:45:24 467.674
CUTE 1.7 + AOD 2 30 Aug 20:39:11 20:43:29 84° 258° (WSW) 20:47:47 437.475
DELFI C3 30 Aug 20:51:58 20:54:29 17° 70° (ENE) 20:57:07 145.870
CANX-2 30 Aug 20:53:09 20:57:19 49° 261° (W) 21:01:30 2200.000
DOVE 4 30 Aug 20:56:46 21:00:58 38° 264° (W) 21:05:23 437.250
STRAND 1 30 Aug 21:04:31 21:07:58 18° 293° (WNW) 21:11:13 437.568
Cosmos 2491 30 Aug 21:05:35 21:14:15 66° 267° (W) 21:22:52 435.465 / 435.565
YUBILEINY 30 Aug 21:08:22 21:16:59 69° 93° (E) 21:25:45 435.215
PRISM 30 Aug 21:09:37 21:11:54 14° 291° (WNW) 21:14:01 437.425
Oscar 11 30 Aug 21:15:29 21:19:43 54° 75° (ENE) 21:23:59 145.826/435.025
SEEDS 30 Aug 21:17:14 21:21:10 36° 263° (W) 21:25:05 437.485
HUMSAT D 30 Aug 21:17:53 21:19:43 13° 68° (ENE) 21:21:47 437.325/437.525
HO-68 30 Aug 21:40:49 21:46:53 28° 265° (W) 21:52:49 435.675
COMPASS 1 30 Aug 21:41:51 21:45:19 24° 265° (W) 21:48:42 437.405
CUBEBUG 2 30 Aug 21:49:55 21:54:24 54° 261° (W) 21:59:01 437.445
CINEMA 3 30 Aug 21:52:12 21:55:54 23° 267° (W) 21:59:39 145.822/145.860
AAUSAT CUBESAT 2 30 Aug 21:53:26 21:56:41 21° 266° (W) 21:59:49 437.432
VELOX 1 30 Aug 21:54:00 21:55:27 12° 67° (ENE) 21:57:09 145.980
